Weiss Lake Weather Center

Moon Phase Calendar



Weiss Lake Water Level
Online Cameras

 


      

Current Conditions in Cedar Bluff
5/29/2024 4:26:55 PM

84°F
Feels Like 85
Clouds
Humidity
52%
Pressure
30.06"
Wind
9.8 mph (NW)
Dew Point
64°F
UV Index
4/10 (Moderate)
Visibility
6 mi

Hourly Forecast

Date & Time Wed, May 29
4:00 PM
Wed, May 29
5:00 PM
Wed, May 29
6:00 PM
Wed, May 29
7:00 PM
Wed, May 29
8:00 PM
Wed, May 29
9:00 PM
Wed, May 29
10:00 PM
Wed, May 29
11:00 PM
Thu, May 30
12:00 AM
Thu, May 30
1:00 AM
Thu, May 30
2:00 AM
Thu, May 30
3:00 AM
Thu, May 30
4:00 AM
Thu, May 30
5:00 AM
Thu, May 30
6:00 AM
Thu, May 30
7:00 AM
Thu, May 30
8:00 AM
Thu, May 30
9:00 AM
Thu, May 30
10:00 AM
Thu, May 30
11:00 AM
Thu, May 30
12:00 PM
Thu, May 30
1:00 PM
Thu, May 30
2:00 PM
Thu, May 30
3:00 PM
Thu, May 30
4:00 PM
Thu, May 30
5:00 PM
Thu, May 30
6:00 PM
Thu, May 30
7:00 PM
Thu, May 30
8:00 PM
Thu, May 30
9:00 PM
Thu, May 30
10:00 PM
Thu, May 30
11:00 PM
Fri, May 31
12:00 AM
Fri, May 31
1:00 AM
Fri, May 31
2:00 AM
Fri, May 31
3:00 AM
Fri, May 31
4:00 AM
Fri, May 31
5:00 AM
Fri, May 31
6:00 AM
Fri, May 31
7:00 AM
Fri, May 31
8:00 AM
Fri, May 31
9:00 AM
Fri, May 31
10:00 AM
Fri, May 31
11:00 AM
Fri, May 31
12:00 PM
Fri, May 31
1:00 PM
Fri, May 31
2:00 PM
Fri, May 31
3:00 PM
Condition
Clouds

Clouds

Clouds

Clouds

Clouds

Clouds

Clouds

Clouds

Clouds

Clouds

Clouds

Clouds

Clouds

Clouds

Clouds

Clouds

Clouds

Clouds

Clouds

Clouds

Clouds

Clouds

Clear

Clear

Clear

Clear

Clear

Clear

Clear

Clear

Clear

Clear

Clear

Clear

Clouds

Clouds

Clouds

Clouds

Clouds

Clouds

Clouds

Clouds

Clouds

Clouds

Clouds

Clouds

Clouds

Clouds
Temperature 84°F83°F81°F77°F71°F66°F64°F62°F60°F59°F57°F56°F56°F55°F56°F59°F64°F68°F72°F76°F78°F81°F81°F81°F80°F79°F77°F71°F65°F63°F61°F60°F59°F59°F58°F57°F56°F55°F54°F59°F64°F69°F73°F77°F80°F83°F84°F85°F
Feels Like 85°F84°F82°F77°F71°F65°F64°F62°F60°F58°F57°F55°F55°F55°F55°F59°F63°F67°F71°F75°F78°F80°F80°F80°F80°F79°F77°F71°F65°F63°F61°F60°F59°F58°F57°F56°F55°F54°F54°F58°F64°F69°F73°F77°F80°F81°F82°F83°F
Cloudiness 87%88%89%91%52%23%35%48%61%68%11%19%35%51%60%67%99%97%97%96%93%79%1%1%0%1%2%10%7%7%6%5%4%3%60%74%65%52%43%36%89%56%38%30%37%37%100%72%
Visibility 6 mi6 mi6 mi6 mi6 mi6 mi6 mi6 mi6 mi6 mi6 mi6 mi6 mi6 mi6 mi6 mi6 mi6 mi6 mi6 mi6 mi6 mi6 mi6 mi6 mi6 mi6 mi6 mi6 mi6 mi6 mi6 mi6 mi6 mi6 mi6 mi6 mi6 mi6 mi6 mi6 mi6 mi6 mi6 mi6 mi6 mi6 mi6 mi
Precipitation 0%0%0%0%0%0%0%0%0%0%0%0%0%0%0%0%0%0%0%0%0%0%0%0%0%0%0%0%0%0%0%0%0%0%0%0%0%0%0%0%0%0%0%0%0%0%0%0%
Humidity 52%51%56%64%70%77%80%82%83%83%85%86%87%88%87%80%69%58%48%40%36%33%34%36%37%39%51%67%74%77%78%80%83%85%88%89%90%92%93%82%68%57%51%46%39%33%30%28%
Dew Point 64°F63°F64°F64°F61°F58°F57°F56°F55°F53°F52°F52°F52°F51°F52°F53°F53°F52°F51°F50°F49°F49°F50°F51°F51°F52°F57°F59°F56°F55°F54°F54°F54°F54°F54°F53°F52°F52°F52°F53°F53°F53°F54°F54°F52°F50°F49°F49°F
Pressure 30.06"30.06"30.06"30.06"30.06"30.06"30.09"30.12"30.12"30.12"30.12"30.09"30.12"30.12"30.15"30.15"30.15"30.15"30.12"30.12"30.09"30.09"30.06"30.06"30.06"30.06"30.06"30.06"30.06"30.09"30.09"30.09"30.09"30.09"30.09"30.09"30.09"30.09"30.12"30.15"30.15"30.15"30.15"30.15"30.12"30.09"30.09"30.06"
Wind Speed 9.8 mph7.6 mph6.3 mph4 mph3.9 mph3.9 mph3.7 mph3.9 mph3.9 mph3.4 mph3.9 mph3.8 mph3.7 mph3.4 mph3.8 mph5.3 mph7 mph6.3 mph5.3 mph4.9 mph3.9 mph4.4 mph7 mph8.4 mph8.3 mph6.6 mph7.3 mph6.7 mph5.1 mph4.5 mph2.6 mph1.7 mph3 mph3.5 mph2.6 mph4 mph4.7 mph4.9 mph5 mph5.5 mph6 mph9.4 mph9.4 mph9 mph7 mph6.2 mph5.8 mph4.8 mph
Wind
Direction
308°
NW
315°
NW
317°
NW
310°
NW
340°
NNW
345°
NNW

N
20°
NNE
26°
NNE
41°
NE
41°
NE
29°
NNE
30°
NNE
28°
NNE
34°
NE
29°
NNE
30°
NNE
36°
NE
37°
NE
21°
NNE
359°
N
317°
NW
304°
NW
306°
NW
309°
NW
300°
WNW
274°
W
284°
WNW
304°
NW
333°
NNW
348°
NNW
354°
N
28°
NNE
31°
NNE
28°
NNE
48°
NE
45°
NE
65°
ENE
58°
ENE
51°
NE
75°
ENE
83°
E
86°
E
97°
E
108°
ESE
110°
ESE
113°
ESE
120°
ESE

Daily Forecast

Date High Low Precip. Humidity
Today
May 29

Clouds
84 °F
60 °F
0%
35%
Thursday
May 30

Clouds
81 °F
55 °F
0%
36%
Friday
May 31

Clouds
85 °F
54 °F
0%
39%
Saturday
Jun 1

Rain
76 °F
59 °F
100%
86%
Sunday
Jun 2

Rain
80 °F
64 °F
100%
64%
Monday
Jun 3

Rain
76 °F
65 °F
100%
93%
Tuesday
Jun 4

Rain
81 °F
64 °F
100%
78%
Wednesday
Jun 5

Rain
86 °F
64 °F
98%
54%
Thursday
Jun 6

Rain
87 °F
67 °F
100%
64%
Friday
Jun 7

Clear
83 °F
60 °F
0%
37%
Saturday
Jun 8

Clouds
86 °F
59 °F
0%
34%
Sunday
Jun 9

Clear
89 °F
65 °F
0%
49%
Monday
Jun 10

Clouds
91 °F
70 °F
0%
42%
Tuesday
Jun 11

Clouds
94 °F
69 °F
0%
40%
Wednesday
Jun 12

Clouds
96 °F
73 °F
0%
39%
Thursday
Jun 13

Clear
97 °F
74 °F
0%
37%

Temperature 8-14 Day Outlook



Precipitation 8-14 Day Outlook




Quick Links
Weiss Lake News
Weiss Lake Photos
Weiss Lake Videos




About Us
Contact Us
Site Map
Search Site
Advertise With Us
   
www.LakeWeiss.info
THE WEISS LAKE WEBSITE

Copyright 2024, Lakes Online
Privacy    |    Legal